[[{"header":{"parameterUnit":"m.s-1","parameterCategory":1,"la1":30.2991,"la2":30.254,"lo1":-89.0895,"lo2":-89.0444,"dy":0.0017,"dx":0.0017,"nx":28,"ny":28,"refTime":"2025-08-22T09:00:00:Z","depth":0,"parameterNumber":2,"parameterNumberName":"U-component_of_WINDS"},"data":[0,0,0,0,0,0,0,0,0,0,0,0,0,0,0,0,0,0,0,0,0,0,0,0,0,0,0,0,0,0,0,0,0,0,0,0,0,0,0,0,0,0,0,0,0,0,0,0,0,0,0,0,0,0,0,0,0,0,-0.3626,-0.3625,0,-0.3539,-0.3538,-0.3537,-0.3489,-0.3489,-0.3488,-0.3488,-0.3395,-0.3393,-0.339,0,0,0,0,0,0,0,0,0,0,0,0,0,-0.3749,-0.3747,-0.3626,-0.3625,-0.3624,-0.3539,-0.3538,-0.3536,-0.3489,-0.3489,-0.3488,-0.3488,-0.3396,-0.3393,-0.339,0,0,0,0,0,0,0,0,0,0,0,0,0,-0.3682,-0.3746,-0.3626,-0.359,-0.3586,-0.3539,-0.3538,-0.3536,-0.3489,-0.3489,-0.3488,-0.3488,-0.3397,-0.3393,-0.339,-0.3371,0,0,-0.3379,-0.3377,0,0,0,0,0,0,0,0,-0.3686,-0.3677,-0.3596,-0.3592,-0.3588,-0.3525,-0.3547,-0.3481,-0.3489,-0.3525,-0.3488,-0.3488,-0.3438,-0.3431,-0.3415,-0.3367,-0.3363,-0.3378,-0.3376,-0.3375,-0.3374,0,0,0,0,0,0,0,-0.369,-0.3681,-0.3591,-0.3595,-0.359,-0.3577,-0.3567,-0.3534,-0.3484,-0.3522,-0.3519,-0.3509,-0.3435,-0.3418,-0.3412,-0.3361,-0.3378,-0.3375,-0.3373,-0.3372,-0.3294,-0.3295,0,0,0,0,0,0,-0.3701,-0.3685,-0.3594,-0.3589,-0.3637,-0.3575,-0.3564,-0.3545,-0.3484,-0.3474,-0.3509,-0.3507,-0.3425,-0.3416,-0.3409,-0.3384,-0.3375,-0.3371,-0.3369,-0.3294,-0.3294,-0.3295,0,0,0,0,0,0,-0.3704,-0.3694,-0.3598,-0.3636,-0.3623,-0.3573,-0.3552,-0.3543,-0.3526,-0.3474,-0.3465,-0.3501,-0.3424,-0.3414,-0.3381,-0.338,-0.337,-0.3366,-0.3294,-0.3294,-0.3295,-0.3333,0,0,0,0,0,0,-0.3708,-0.3695,-0.3688,-0.3636,-0.3621,-0.3573,-0.3552,-0.3542,-0.3521,-0.3517,-0.3464,-0.3455,-0.3423,-0.3387,-0.3378,-0.3375,-0.3364,-0.3294,-0.3294,-0.3294,-0.3332,-0.3334,-0.3337,0,0,0,0,0,-0.3712,-0.3701,-0.3688,-0.3677,-0.3611,-0.3573,-0.3564,-0.3528,-0.3521,-0.3513,-0.348,-0.3457,-0.3382,-0.3384,-0.3373,-0.3369,-0.3294,-0.3294,-0.3294,-0.333,-0.3334,-0.3337,0,0,0,0,0,0,-0.3752,-0.3694,-0.3678,-0.365,-0.3617,-0.3565,-0.3554,-0.3533,-0.35,-0.3498,-0.3454,-0.3443,-0.3414,-0.3388,-0.3392,-0.3348,-0.3335,-0.3333,-0.3366,-0.3369,-0.3372,-0.3378,-0.3361,0,0,0,0,0,-0.3758,-0.3733,-0.3682,-0.3663,-0.3647,-0.3604,-0.3585,-0.3561,-0.3524,-0.351,-0.3474,-0.3438,-0.3406,-0.3386,-0.3354,-0.3328,-0.3316,-0.332,-0.3322,-0.3325,-0.3323,-0.3308,-0.3309,-0.3295,-0.3295,-0.3295,0,0,-0.3769,-0.3734,-0.3721,-0.367,-0.3641,-0.3615,-0.3592,-0.3565,-0.3545,-0.3505,-0.3473,-0.3446,-0.3403,-0.3374,-0.3359,-0.3351,-0.3325,-0.3325,-0.3327,-0.3324,-0.3308,-0.331,-0.3311,-0.3295,-0.3295,-0.3295,0,0,-0.3777,-0.3748,-0.3728,-0.3701,-0.3659,-0.363,-0.3626,-0.3577,-0.3558,-0.3525,-0.3495,-0.347,-0.3416,-0.3387,-0.3365,-0.3364,-0.3341,-0.3354,-0.3367,-0.3353,-0.3354,-0.3355,-0.3355,-0.3355,-0.3353,-0.3353,-0.3353,0,-0.3796,-0.3756,-0.3721,-0.3696,-0.3675,-0.3639,-0.3619,-0.3594,-0.3543,-0.3528,-0.352,-0.3453,-0.3422,-0.3386,-0.3386,-0.3369,-0.3362,-0.336,-0.3357,-0.3358,-0.3358,-0.3357,-0.3357,-0.3355,-0.3355,-0.3355,-0.3354,0,-0.3782,-0.3755,-0.3744,-0.3698,-0.3675,-0.3653,-0.3613,-0.3595,-0.3573,-0.3545,-0.3512,-0.3474,-0.3434,-0.3423,-0.3401,-0.3384,-0.3381,-0.3366,-0.3352,-0.3362,-0.336,-0.3359,-0.3358,-0.3357,-0.3357,-0.3356,0,0,-0.3811,-0.3746,-0.3743,-0.3722,-0.3673,-0.3652,-0.3628,-0.359,-0.3575,-0.3541,-0.352,-0.3476,-0.3463,-0.3438,-0.3412,-0.34,-0.3401,-0.3386,-0.3384,-0.339,-0.3381,-0.3393,-0.3393,-0.3387,-0.3386,-0.3386,-0.3385,0,-0.3811,-0.3768,-0.3736,-0.3705,-0.368,-0.3646,-0.3626,-0.3593,-0.3567,-0.3541,-0.3511,-0.3481,-0.3465,-0.3451,-0.3437,-0.3404,-0.3399,-0.3404,-0.3366,-0.3365,-0.3378,-0.3392,-0.3404,-0.3404,-0.3384,-0.3384,-0.3384,0,-0.3805,-0.3775,-0.3742,-0.3697,-0.3685,-0.3668,-0.3631,-0.3607,-0.357,-0.3552,-0.3525,-0.3499,-0.3472,-0.3461,-0.3423,-0.3427,-0.341,-0.3392,-0.3391,-0.3386,-0.3375,-0.3387,-0.3403,-0.3404,-0.3382,-0.3382,-0.3382,0,-0.383,-0.3781,-0.3755,-0.3738,-0.3685,-0.3673,-0.365,-0.3613,-0.3593,-0.3561,-0.3547,-0.3512,-0.3492,-0.3465,-0.343,-0.3426,-0.3396,-0.3382,-0.3379,-0.338,-0.3374,-0.3375,-0.3388,-0.3363,-0.3363,-0.3363,-0.3363,0,-0.3834,-0.3815,-0.3765,-0.3749,-0.3727,-0.3691,-0.3669,-0.3644,-0.3611,-0.3589,-0.3557,-0.3537,-0.3492,-0.3466,-0.3439,-0.3412,-0.3403,-0.3387,-0.338,-0.339,-0.3392,-0.3377,-0.3376,-0.3363,-0.3363,-0.3363,-0.3363,0,-0.3857,-0.3824,-0.3793,-0.3747,-0.3734,-0.372,-0.368,-0.3663,-0.3635,-0.3608,-0.3599,-0.3556,-0.3524,-0.3487,-0.3442,-0.3423,-0.3399,-0.3388,-0.3412,-0.3408,-0.3407,-0.3408,-0.3411,-0.341,-0.3387,-0.3387,-0.3387,0,-0.3862,-0.3847,-0.3799,-0.3783,-0.3762,-0.3736,-0.3716,-0.3679,-0.3659,-0.3617,-0.3605,-0.3571,-0.3542,-0.3493,-0.3456,-0.3422,-0.341,-0.3414,-0.3405,-0.3416,-0.3411,-0.3412,-0.3411,-0.3416,-0.3417,-0.3417,-0.3418,0,-0.3874,-0.3858,-0.3831,-0.3799,-0.3776,-0.3748,-0.3719,-0.3707,-0.3665,-0.3644,-0.3612,-0.359,-0.3545,-0.3512,-0.3474,-0.3449,-0.3426,-0.3421,-0.3419,-0.3428,-0.3443,-0.3436,-0.3418,-0.3421,-0.342,-0.342,-0.342,-0.342,-0.3888,-0.3873,-0.3838,-0.3809,-0.3784,-0.3758,-0.374,-0.3711,-0.3685,-0.3647,-0.3626,-0.3595,-0.3559,-0.3505,-0.3482,-0.3456,-0.3448,-0.3444,-0.3443,-0.3443,-0.3446,-0.3448,-0.3449,-0.3448,-0.3448,-0.3448,-0.3448,0,-0.3898,-0.3874,-0.3848,-0.381,-0.3787,-0.3769,-0.3736,-0.3718,-0.3692,-0.366,-0.3633,-0.3597,-0.3565,-0.3527,-0.3492,-0.3479,-0.3468,-0.3471,-0.3472,-0.3467,-0.3455,-0.3461,-0.3481,-0.3481,-0.3481,-0.3481,-0.3481,-0.3481,-0.3901,-0.3876,-0.3856,-0.3819,-0.3794,-0.3765,-0.3748,-0.3723,-0.3698,-0.366,-0.3634,-0.361,-0.3576,-0.3539,-0.3509,-0.3498,-0.3487,-0.3494,-0.348,-0.347,-0.3467,-0.3465,-0.347,-0.3491,-0.3491,-0.3494,-0.3494,-0.3494]},{"header":{"parameterUnit":"m.s-1","parameterCategory":1,"la1":30.2991,"la2":30.254,"lo1":-89.0895,"lo2":-89.0444,"dy":0.0017,"dx":0.0017,"nx":28,"ny":28,"refTime":"2025-08-22T09:00:00:Z","depth":0,"parameterNumber":3,"parameterNumberName":"V-component_of_WINDS"},"data":[0,0,0,0,0,0,0,0,0,0,0,0,0,0,0,0,0,0,0,0,0,0,0,0,0,0,0,0,0,0,0,0,0,0,0,0,0,0,0,0,0,0,0,0,0,0,0,0,0,0,0,0,0,0,0,0,0,0,0.1436,0.1437,0,0.1542,0.1543,0.1544,0.1563,0.1562,0.1562,0.1561,0.167,0.1674,0.1677,0,0,0,0,0,0,0,0,0,0,0,0,0,0.1249,0.1252,0.1436,0.1437,0.1438,0.1542,0.1543,0.1544,0.1563,0.1562,0.1561,0.156,0.1669,0.1673,0.1678,0,0,0,0,0,0,0,0,0,0,0,0,0,0.134,0.1253,0.1436,0.146,0.1464,0.1541,0.1543,0.1545,0.1564,0.1562,0.1561,0.156,0.1667,0.1673,0.1678,0.1739,0,0,0.1695,0.1698,0,0,0,0,0,0,0,0,0.1335,0.1347,0.1455,0.1459,0.1463,0.1538,0.1517,0.161,0.1564,0.1526,0.1561,0.1559,0.1627,0.1636,0.1659,0.1744,0.1749,0.1696,0.1699,0.1702,0.1703,0,0,0,0,0,0,0,0.1328,0.1342,0.1478,0.1457,0.1461,0.1466,0.1477,0.1535,0.1583,0.1529,0.1531,0.1543,0.1629,0.1653,0.1661,0.175,0.1696,0.1701,0.1704,0.1706,0.1887,0.1889,0,0,0,0,0,0,0.1318,0.1337,0.1474,0.1481,0.1394,0.147,0.1483,0.1515,0.1582,0.1591,0.1544,0.1543,0.1644,0.1655,0.1665,0.1739,0.1702,0.1707,0.171,0.1886,0.1888,0.1889,0,0,0,0,0,0,0.1314,0.133,0.147,0.1409,0.1428,0.1475,0.1511,0.1518,0.1542,0.1593,0.1602,0.156,0.1644,0.1658,0.172,0.1743,0.1709,0.1714,0.1884,0.1886,0.1889,0.1888,0,0,0,0,0,0,0.1308,0.1328,0.1352,0.141,0.1431,0.1523,0.1512,0.1521,0.1552,0.1552,0.1611,0.1619,0.1644,0.1711,0.1725,0.175,0.1719,0.1882,0.1885,0.1888,0.1886,0.1889,0.1893,0,0,0,0,0,0.1301,0.1349,0.1353,0.137,0.1462,0.1525,0.1537,0.1564,0.1554,0.1578,0.161,0.1617,0.1738,0.1717,0.1733,0.176,0.1881,0.1884,0.1888,0.1884,0.1889,0.1892,0,0,0,0,0,0,0.1294,0.1357,0.1363,0.143,0.1472,0.1528,0.1559,0.1568,0.1614,0.1612,0.1644,0.1657,0.1717,0.1745,0.1721,0.1821,0.1809,0.1815,0.1801,0.1805,0.1809,0.1801,0.1723,0,0,0,0,0,0.13,0.1345,0.1398,0.1452,0.1473,0.1512,0.1541,0.1558,0.1602,0.162,0.1657,0.17,0.1747,0.1778,0.1824,0.1889,0.1901,0.1916,0.1919,0.1921,0.1927,0.1961,0.1967,0.19,0.19,0.19,0,0,0.1313,0.1353,0.138,0.1452,0.1486,0.1532,0.1527,0.1577,0.1611,0.1628,0.1688,0.1716,0.1766,0.1829,0.1859,0.1854,0.1948,0.1926,0.1927,0.1932,0.1965,0.1971,0.1977,0.1902,0.1902,0.1902,0,0,0.136,0.1396,0.1444,0.1477,0.1529,0.1554,0.1565,0.162,0.1639,0.17,0.1712,0.1753,0.1835,0.1869,0.1897,0.1953,0.1961,0.1968,0.1986,0.2019,0.2024,0.2029,0.2047,0.2054,0.1973,0.1973,0.1973,0,0.137,0.144,0.1467,0.1516,0.1546,0.1562,0.161,0.1641,0.1705,0.1725,0.1719,0.182,0.1855,0.1925,0.1938,0.1961,0.1974,0.1962,0.2021,0.2026,0.2031,0.2049,0.2056,0.1973,0.1973,0.1973,0.1973,0,0.1449,0.1497,0.153,0.159,0.1624,0.1672,0.1705,0.1736,0.1749,0.1774,0.1835,0.1877,0.1931,0.1949,0.1963,0.202,0.2015,0.2015,0.2003,0.2037,0.2055,0.2062,0.1974,0.1974,0.1973,0.1973,0,0,0.1497,0.1569,0.158,0.1606,0.1663,0.17,0.1748,0.18,0.1825,0.1868,0.1907,0.1974,0.1973,0.2005,0.2023,0.2051,0.2091,0.2047,0.2048,0.2052,0.2154,0.2154,0.2162,0.2096,0.2098,0.2099,0.215,0,0.155,0.1635,0.1659,0.1731,0.1775,0.1789,0.183,0.1868,0.1893,0.1933,0.196,0.2006,0.2002,0.2021,0.205,0.208,0.2112,0.2077,0.2133,0.2134,0.2119,0.2171,0.2172,0.2218,0.2157,0.2158,0.2159,0,0.1624,0.1667,0.1742,0.179,0.1809,0.1846,0.1894,0.1933,0.1976,0.1991,0.2025,0.2039,0.2088,0.2073,0.214,0.2115,0.2139,0.2157,0.216,0.2166,0.2149,0.2178,0.2234,0.224,0.217,0.2169,0.2168,0,0.1649,0.1725,0.178,0.1802,0.186,0.1885,0.191,0.1952,0.1981,0.2023,0.2041,0.2089,0.2114,0.215,0.2176,0.2163,0.224,0.2228,0.2253,0.2252,0.2269,0.2268,0.2329,0.2285,0.2285,0.2285,0.2285,0,0.1706,0.1751,0.1792,0.1825,0.1876,0.1902,0.1951,0.1977,0.2014,0.2051,0.2067,0.2102,0.2135,0.2174,0.2195,0.2245,0.2257,0.227,0.2275,0.2269,0.2267,0.2285,0.2282,0.2287,0.2287,0.2286,0.2286,0,0.1743,0.1772,0.1832,0.1881,0.1894,0.1929,0.1971,0.2003,0.2027,0.2075,0.2087,0.2125,0.2171,0.2201,0.2261,0.2274,0.233,0.2334,0.2315,0.2317,0.2341,0.2337,0.2415,0.2426,0.2376,0.2376,0.2376,0,0.1777,0.1812,0.1864,0.189,0.1915,0.1957,0.1986,0.2013,0.2042,0.2092,0.2118,0.2165,0.2204,0.2278,0.231,0.2355,0.236,0.2384,0.2367,0.2358,0.2359,0.2356,0.2359,0.2387,0.2387,0.2387,0.2388,0,0.1834,0.1845,0.1886,0.1932,0.1965,0.2002,0.2039,0.206,0.2092,0.2124,0.2171,0.2202,0.2261,0.2307,0.2355,0.238,0.2389,0.2392,0.24,0.2394,0.2381,0.2387,0.2322,0.2391,0.239,0.239,0.239,0.239,0.187,0.19,0.1941,0.1985,0.2015,0.2049,0.2081,0.2108,0.2148,0.2198,0.2211,0.226,0.2299,0.2363,0.2389,0.2427,0.2424,0.2436,0.2439,0.2442,0.2441,0.2375,0.2436,0.2436,0.2436,0.2436,0.2436,0,0.1926,0.1952,0.1993,0.2043,0.2077,0.2081,0.2122,0.215,0.2193,0.2229,0.2266,0.2319,0.2363,0.2398,0.2443,0.2467,0.2472,0.2477,0.2476,0.2481,0.2442,0.243,0.2472,0.2472,0.2472,0.2472,0.2472,0.2472,0.196,0.2011,0.2027,0.2093,0.2119,0.2167,0.2189,0.2219,0.2248,0.2306,0.2342,0.2364,0.2399,0.2446,0.2486,0.2495,0.2511,0.2515,0.2525,0.2488,0.2484,0.248,0.2469,0.2519,0.2519,0.2561,0.2561,0.2561]}]]